EST,Max TemperatureF,Mean TemperatureF,Min TemperatureF,Max Dew PointF,MeanDew PointF,Min DewpointF,Max Humidity, Mean Humidity, Min Humidity, Max Sea Level PressureIn, Mean Sea Level PressureIn, Min Sea Level PressureIn, Max VisibilityMiles, Mean VisibilityMiles, Min VisibilityMiles, Max Wind SpeedMPH, Mean Wind SpeedMPH, Max Gust SpeedMPH,PrecipitationIn, CloudCover, Events, WindDirDegrees
2014-2-1,21,12,3,18,11,1,92,83,73,30.12,30.01,29.90,10,6,1,6,2,8,0.07,7,Snow,53
2014-2-2,20,16,12,16,11,6,92,77,61,30.28,30.15,29.99,10,8,2,14,5,19,T,8,Snow,297
2014-2-3,20,16,11,9,7,5,84,70,56,30.35,30.30,30.26,10,10,10,13,4,17,0.00,6,,225
2014-2-4,22,16,9,14,10,6,92,80,67,30.44,30.36,30.28,10,10,7,8,3,,T,6,Snow,57
2014-2-5,18,14,10,9,5,2,73,66,59,30.38,30.28,30.20,10,9,3,20,11,26,T,7,Snow,5
2014-2-6,14,12,10,8,5,1,84,73,61,30.37,30.23,30.14,10,5,2,18,7,26,T,8,Snow,244
2014-2-7,15,11,6,6,3,1,83,75,67,30.19,30.15,30.09,10,4,2,20,9,30,T,7,Snow,239
2014-2-8,19,7,-6,8,2,-11,91,71,51,30.24,30.20,30.14,10,9,4,14,3,17,T,5,Snow,247
2014-2-9,20,15,10,12,9,7,88,72,56,30.19,30.09,30.02,10,5,2,16,3,23,T,8,Snow,339
2014-2-10,13,10,6,8,2,-3,80,69,58,30.43,30.28,30.16,10,6,1,17,6,22,T,8,Snow,343
2014-2-11,18,7,-4,4,-2,-8,87,68,49,30.51,30.44,30.33,10,10,8,10,3,13,T,5,Snow,165
2014-2-12,21,16,11,15,11,3,77,72,67,30.34,30.15,30.03,10,7,2,13,7,21,T,8,Snow,197
2014-2-13,29,25,20,17,11,3,84,59,34,30.04,29.76,29.47,10,9,6,14,6,24,T,8,Snow,151
2014-2-14,25,15,5,21,15,-1,92,81,70,29.92,29.61,29.42,10,3,2,17,7,23,0.02,8,Snow,332
2014-2-15,17,8,-2,7,1,-6,87,74,61,30.08,29.99,29.88,10,9,5,10,4,12,T,6,Snow,343
2014-2-16,17,6,-5,11,7,-9,92,77,61,30.37,30.09,29.94,10,5,1,13,5,15,0.05,5,Snow,34
2014-2-17,22,7,-8,12,6,-7,88,64,39,30.37,30.00,29.72,10,6,0,20,7,31,0.16,5,Fog-Snow,106
2014-2-18,39,22,5,24,14,4,100,76,52,29.88,29.76,29.58,10,8,2,13,4,19,0.01,5,Snow,189
2014-2-19,43,30,17,27,21,16,100,70,39,29.93,29.76,29.57,10,7,2,15,5,18,0.00,2,,227
2014-2-20,42,35,28,34,27,21,76,66,55,29.96,29.66,29.18,10,9,3,29,9,44,0.06,6,Rain-Snow,119
2014-2-21,40,32,24,36,22,14,88,78,68,29.55,29.28,29.12,10,4,0,26,15,41,0.02,8,Rain-Snow,221
2014-2-22,27,24,20,14,12,10,77,64,50,29.93,29.75,29.57,10,7,2,25,15,36,T,6,Snow,245
2014-2-23,21,18,14,12,9,7,88,72,56,30.04,29.99,29.94,10,5,0,22,12,28,0.01,8,Fog-Snow,274
2014-2-24,17,14,10,13,8,4,88,75,61,30.17,30.06,29.99,10,4,0,17,9,23,T,8,Snow,307
2014-2-25,16,10,4,11,5,-7,88,76,63,30.17,30.07,29.99,10,5,1,24,9,29,T,8,Snow,272
2014-2-26,14,6,-2,7,0,-6,83,69,55,30.07,29.80,29.46,10,3,0,24,11,36,0.01,7,Fog-Snow,269
2014-2-27,12,-1,-15,7,-5,-20,88,73,57,30.24,29.78,29.44,10,3,0,25,12,36,0.01,7,Fog-Snow,333
2014-2-28,16,-1,-18,6,-5,-24,81,62,42,30.28,30.15,30.02,10,7,1,14,5,21,0.01,6,Snow,153